Location: Fort Wayne
(41.1310°N, 85.1290°W)
Time: 10:46:35
(UTC-04:00)

Courier 1B Rocket - All Passes

Search period start: 29 July 2014 00:00
Search period end: 08 August 2014 00:00
Orbit: 921 x 1202 km, 28.3° (Epoch: 29 July)

Date Brightness Start Highest point End Pass type
(mag) Time Alt. Az. Time Alt. Az. Time Alt. Az.
29 Jul - 15:27:52 10° SSW 15:33:36 23° SSE 15:39:20 10° ESE daylight
29 Jul - 17:19:50 10° SW 17:26:28 31° S 17:32:57 10° ESE daylight
29 Jul - 19:13:12 10° WSW 19:19:21 26° SSW 19:25:17 10° SE daylight
29 Jul - 21:08:39 10° SW 21:11:53 13° SSW 21:15:02 10° S daylight
30 Jul - 14:27:50 10° SSW 14:32:45 18° SSE 14:37:43 10° ESE daylight
30 Jul - 16:19:01 10° SW 16:25:31 29° S 16:31:59 10° ESE daylight
30 Jul - 18:11:57 10° WSW 18:18:27 29° S 18:24:48 10° SE daylight
30 Jul - 20:06:19 10° WSW 20:11:10 18° SSW 20:15:52 10° SSE daylight
31 Jul - 13:28:30 10° S 13:31:58 14° SSE 13:35:29 10° SE daylight
31 Jul - 15:18:25 10° SW 15:24:36 27° SSE 15:30:50 10° ESE daylight
31 Jul - 17:10:53 10° WSW 17:17:31 31° S 17:24:05 10° SE daylight
31 Jul - 19:04:38 10° WSW 19:10:22 23° SSW 19:15:57 10° SSE daylight
01 Aug - 14:18:06 10° SSW 14:23:43 23° SSE 14:29:28 10° ESE daylight
01 Aug - 16:09:58 10° SW 16:16:34 31° S 16:23:12 10° ESE daylight
01 Aug - 18:03:14 10° WSW 18:09:30 27° SSW 18:15:39 10° SE daylight
01 Aug - 19:58:34 10° SW 20:02:06 14° SSW 20:05:35 10° S daylight
02 Aug - 13:18:10 10° SSW 13:22:55 18° SSE 13:27:47 10° ESE daylight
02 Aug - 15:09:14 10° SW 15:15:38 29° S 15:22:09 10° ESE daylight
02 Aug - 17:02:04 10° WSW 17:08:34 30° S 17:15:04 10° SE daylight
02 Aug - 18:56:21 10° WSW 19:01:20 18° SSW 19:06:15 10° SSE daylight
03 Aug - 12:18:58 10° S 12:22:10 13° SSE 12:25:27 10° SE daylight
03 Aug - 14:08:44 10° SW 14:14:44 26° SSE 14:20:55 10° ESE daylight
03 Aug - 16:01:04 10° WSW 16:07:38 31° S 16:14:16 10° SE daylight
03 Aug - 17:54:43 10° WSW 18:00:30 23° SSW 18:06:14 10° SSE daylight
04 Aug - 13:08:30 10° SSW 13:13:54 22° SSE 13:19:29 10° ESE daylight
04 Aug - 15:00:15 10° SW 15:06:41 31° S 15:13:18 10° ESE daylight
04 Aug - 16:53:25 10° WSW 16:59:36 27° SSW 17:05:51 10° SE daylight
04 Aug - 18:48:38 10° SW 18:52:16 14° SSW 18:55:53 10° S daylight
05 Aug - 12:08:41 10° SSW 12:13:08 17° SSE 12:17:44 10° ESE daylight
05 Aug - 13:59:37 10° SW 14:05:47 29° S 14:12:11 10° ESE daylight
05 Aug - 15:52:20 10° WSW 15:58:41 29° S 16:05:11 10° SE daylight
05 Aug - 17:46:30 10° WSW 17:51:28 18° SSW 17:56:27 10° SSE daylight
06 Aug - 11:09:40 10° S 11:12:27 13° SSE 11:15:18 10° SE daylight
06 Aug - 12:59:12 10° SW 13:04:55 26° SSE 13:10:55 10° ESE daylight
06 Aug - 14:51:26 10° WSW 14:57:46 30° S 15:04:19 10° SE daylight
06 Aug - 16:44:58 10° WSW 16:50:37 23° SSW 16:56:21 10° SSE daylight
07 Aug - 11:59:04 10° SSW 12:04:08 21° SSE 12:09:27 10° ESE daylight
07 Aug - 13:50:42 10° SW 13:56:52 30° S 14:03:18 10° ESE daylight
07 Aug - 15:43:45 10° WSW 15:49:44 26° SSW 15:55:54 10° SE daylight
07 Aug - 17:38:54 10° SW 17:42:25 14° SSW 17:45:57 10° S daylight
